,,,PA_Meas_PMT16A,,PR_Meas_QMR101_102,,RH_Meas_QMH101,,SR_Meas_QMS101,,TA_Meas_QMH101,,GenWind,,GenWind,
date,time,status,PA,status,PR,status,RH,status,SR,status,TA,status,DirAvg,status,SpdAvg,
2009-05-05, 00:00:04,VALID,1009.74,VALID,0,VALID,80.2992,VALID,0,VALID,22.6987,VALID,61,VALID,0.0890625,
2009-05-05, 00:01:04,VALID,1009.72,VALID,0,VALID,80.3144,VALID,0,VALID,22.7004,VALID,61,VALID,0,
2009-05-05, 00:02:04,VALID,1009.71,VALID,0,VALID,80.3068,VALID,0,VALID,22.7004,VALID,61,VALID,0,
2009-05-05, 00:03:04,VALID,1009.74,VALID,0,VALID,80.2687,VALID,0,VALID,22.6792,VALID,61,VALID,0,
2009-05-05, 00:04:04,VALID,1009.72,VALID,0,VALID,80.2992,VALID,0,VALID,22.6792,VALID,61,VALID,0,
2009-05-05, 00:05:04,VALID,1009.76,VALID,0,VALID,80.2992,VALID,0,VALID,22.7004,VALID,61,VALID,0,
2009-05-05, 00:06:04,VALID,1009.75,VALID,0,VALID,80.2992,VALID,0,VALID,22.7004,VALID,61,VALID,0,
2009-05-05, 00:07:04,VALID,1009.74,VALID,0,VALID,80.3068,VALID,0,VALID,22.7199,VALID,61,VALID,0,
2009-05-05, 00:08:04,VALID,1009.71,VALID,0,VALID,80.3068,VALID,0,VALID,22.7199,VALID,61,VALID,0,
2009-05-05, 00:09:04,VALID,1009.71,VALID,0,VALID,80.2839,VALID,0,VALID,22.7199,VALID,61,VALID,0,
2009-05-05, 00:10:04,VALID,1009.69,VALID,0,VALID,80.2916,VALID,0,VALID,22.7199,VALID,61,VALID,0,
2009-05-05, 00:11:04,VALID,1009.7,VALID,0,VALID,80.2916,VALID,0,VALID,22.7394,VALID,61,VALID,0,
2009-05-05, 00:12:04,VALID,1009.67,VALID,0,VALID,80.2839,VALID,0,VALID,22.7394,VALID,61,VALID,0,
2009-05-05, 00:13:04,VALID,1009.66,VALID,0,VALID,80.2839,VALID,0,VALID,22.7588,VALID,61,VALID,0,
2009-05-05, 00:14:04,VALID,1009.64,VALID,0,VALID,80.2839,VALID,0,VALID,22.7588,VALID,61,VALID,0,
2009-05-05, 00:15:04,VALID,1009.64,VALID,0,VALID,80.2839,VALID,0.105969,VALID,22.7376,VALID,61,VALID,0,
2009-05-05, 00:16:04,VALID,1009.63,VALID,0,VALID,80.2916,VALID,0.105969,VALID,22.7571,VALID,61,VALID,0,
2009-05-05, 00:17:04,VALID,1009.62,VALID,0,VALID,80.2763,VALID,0.105969,VALID,22.7571,VALID,61,VALID,0,
2009-05-05, 00:18:04,VALID,1009.62,VALID,0,VALID,80.2839,VALID,0,VALID,22.7783,VALID,61,VALID,0,
2009-05-05, 00:19:04,VALID,1009.59,VALID,0,VALID,80.2687,VALID,0.105969,VALID,22.7766,VALID,61,VALID,0,
2009-05-05, 00:20:04,VALID,1009.57,VALID,0,VALID,80.2687,VALID,0.105969,VALID,22.7571,VALID,61,VALID,0,
2009-05-05, 00:21:04,VALID,1009.53,VALID,0,VALID,80.2916,VALID,0,VALID,22.7783,VALID,61,VALID,0,
2009-05-05, 00:22:04,VALID,1009.51,VALID,0,VALID,80.2763,VALID,0,VALID,22.7571,VALID,61,VALID,0,
2009-05-05, 00:23:04,VALID,1009.49,VALID,0,VALID,80.2916,VALID,0,VALID,22.7571,VALID,61,VALID,0,
2009-05-05, 00:24:04,VALID,1009.48,VALID,0,VALID,80.2534,VALID,0.105969,VALID,22.7571,VALID,61,VALID,0,
2009-05-05, 00:25:04,VALID,1009.46,VALID,0,VALID,80.2839,VALID,0,VALID,22.7571,VALID,61,VALID,0,
2009-05-05, 00:26:04,VALID,1009.48,VALID,0,VALID,80.2839,VALID,0.105969,VALID,22.7571,VALID,61,VALID,0,
2009-05-05, 00:27:04,VALID,1009.46,VALID,0,VALID,80.2916,VALID,0,VALID,22.7571,VALID,61,VALID,0,
2009-05-05, 00:28:04,VALID,1009.44,VALID,0,VALID,80.2763,VALID,0,VALID,22.7783,VALID,61,VALID,0,
2009-05-05, 00:29:04,VALID,1009.46,VALID,0,VALID,80.2763,VALID,0,VALID,22.7571,VALID,61,VALID,0,
2009-05-05, 00:30:04,VALID,1009.46,VALID,0,VALID,80.2992,VALID,0,VALID,22.7588,VALID,61,VALID,0,
2009-05-05, 00:31:04,VALID,1009.45,VALID,0,VALID,80.2763,VALID,0,VALID,22.7588,VALID,61,VALID,0,
2009-05-05, 00:32:04,VALID,1009.42,VALID,0,VALID,80.2763,VALID,0,VALID,22.7783,VALID,61,VALID,0,
2009-05-05, 00:33:04,VALID,1009.4,VALID,0,VALID,80.2763,VALID,0,VALID,22.7783,VALID,61,VALID,0,
2009-05-05, 00:34:04,VALID,1009.38,VALID,0,VALID,80.2687,VALID,0,VALID,22.7783,VALID,61,VALID,0,
2009-05-05, 00:35:04,VALID,1009.38,VALID,0,VALID,80.2763,VALID,0,VALID,22.7783,VALID,61,VALID,0,
2009-05-05, 00:36:04,VALID,1009.35,VALID,0,VALID,80.2687,VALID,0,VALID,22.7783,VALID,61,VALID,0,
2009-05-05, 00:37:04,VALID,1009.31,VALID,0,VALID,80.2839,VALID,0,VALID,22.7978,VALID,61,VALID,0,
2009-05-05, 00:38:04,VALID,1009.3,VALID,0,VALID,80.2687,VALID,0,VALID,22.7783,VALID,61,VALID,0,
2009-05-05, 00:39:04,VALID,1009.32,VALID,0,VALID,80.2763,VALID,0,VALID,22.7978,VALID,61,VALID,0,
2009-05-05, 00:40:04,VALID,1009.29,VALID,0,VALID,80.2687,VALID,0,VALID,22.7995,VALID,61,VALID,0,
2009-05-05, 00:41:04,VALID,1009.28,VALID,0,VALID,80.2687,VALID,0,VALID,22.7978,VALID,61,VALID,0,
2009-05-05, 00:42:04,VALID,1009.29,VALID,0,VALID,80.2839,VALID,0,VALID,22.7978,VALID,61,VALID,0,
2009-05-05, 00:43:04,VALID,1009.28,VALID,0,VALID,80.2839,VALID,0,VALID,22.7783,VALID,61,VALID,0,
2009-05-05, 00:44:04,VALID,1009.28,VALID,0,VALID,80.2687,VALID,0,VALID,22.7978,VALID,61,VALID,0,
2009-05-05, 00:45:04,VALID,1009.27,VALID,0,VALID,80.2534,VALID,0,VALID,22.7978,VALID,61,VALID,0,
2009-05-05, 00:46:04,VALID,1009.24,VALID,0,VALID,80.2687,VALID,0,VALID,22.7978,VALID,61,VALID,0,
2009-05-05, 00:47:04,VALID,1009.25,VALID,0,VALID,80.2839,VALID,0,VALID,22.7978,VALID,61,VALID,0,
2009-05-05, 00:48:04,VALID,1009.24,VALID,0,VALID,80.2763,VALID,0,VALID,22.7978,VALID,61,VALID,0,
2009-05-05, 00:49:04,VALID,1009.21,VALID,0,VALID,80.2687,VALID,0,VALID,22.7978,VALID,61,VALID,0,
2009-05-05, 00:50:04,VALID,1009.2,VALID,0,VALID,80.2763,VALID,0,VALID,22.7978,VALID,61,VALID,0,
2009-05-05, 00:51:04,VALID,1009.18,VALID,0,VALID,80.2763,VALID,0,VALID,22.7978,VALID,61,VALID,0,
2009-05-05, 00:52:04,VALID,1009.2,VALID,0,VALID,80.2611,VALID,0,VALID,22.7978,VALID,61,VALID,0,
2009-05-05, 00:53:04,VALID,1009.17,VALID,0,VALID,80.2763,VALID,0,VALID,22.7978,VALID,61,VALID,0,
2009-05-05, 00:54:04,VALID,1009.18,VALID,0,VALID,80.2763,VALID,0,VALID,22.7978,VALID,61,VALID,0,
2009-05-05, 00:55:04,VALID,1009.16,VALID,0,VALID,80.2534,VALID,0,VALID,22.8173,VALID,61,VALID,0,
2009-05-05, 00:56:04,VALID,1009.15,VALID,0,VALID,80.2611,VALID,0,VALID,22.7978,VALID,61,VALID,0,
2009-05-05, 00:57:04,VALID,1009.16,VALID,0,VALID,80.2153,VALID,0,VALID,22.8173,VALID,61,VALID,0,
2009-05-05, 00:58:04,VALID,1009.15,VALID,0,VALID,80.2229,VALID,0,VALID,22.7978,VALID,61,VALID,0,
2009-05-05, 00:59:04,VALID,1009.14,VALID,0,VALID,80.2306,VALID,0,VALID,22.8173,VALID,61,VALID,0,
2009-05-05, 01:00:04,VALID,1009.14,VALID,0,VALID,80.2153,VALID,0,VALID,22.8173,VALID,61,VALID,0,
2009-05-05, 01:01:04,VALID,1009.09,VALID,0,VALID,80.2306,VALID,0,VALID,22.7978,VALID,61,VALID,0,
2009-05-05, 01:02:04,VALID,1009.07,VALID,0,VALID,80.2306,VALID,0,VALID,22.7978,VALID,61,VALID,0,
2009-05-05, 01:03:04,VALID,1009.07,VALID,0,VALID,80.2229,VALID,0,VALID,22.7978,VALID,61,VALID,0,
2009-05-05, 01:04:04,VALID,1009.05,VALID,0,VALID,80.2306,VALID,0,VALID,22.8173,VALID,61,VALID,0,
2009-05-05, 01:05:04,VALID,1009.02,VALID,0,VALID,80.2229,VALID,0,VALID,22.7978,VALID,61,VALID,0,
2009-05-05, 01:06:04,VALID,1009,VALID,0,VALID,80.2306,VALID,0,VALID,22.7978,VALID,61,VALID,0,
2009-05-05, 01:07:04,VALID,1008.99,VALID,0,VALID,80.2153,VALID,0,VALID,22.7978,VALID,61,VALID,0,
2009-05-05, 01:08:04,VALID,1009,VALID,0,VALID,80.2306,VALID,0,VALID,22.7783,VALID,61,VALID,0,
2009-05-05, 01:09:04,VALID,1009.02,VALID,0,VALID,80.2458,VALID,0,VALID,22.7783,VALID,61,VALID,0,
2009-05-05, 01:10:04,VALID,1009.01,VALID,0,VALID,80.2306,VALID,0,VALID,22.7978,VALID,61,VALID,0,
2009-05-05, 01:11:04,VALID,1008.97,VALID,0,VALID,80.2458,VALID,0,VALID,22.8173,VALID,116,VALID,0.303125,
2009-05-05, 01:12:04,VALID,1008.99,VALID,0,VALID,80.2153,VALID,0,VALID,22.8173,VALID,116,VALID,0.292969,
2009-05-05, 01:13:04,VALID,1008.96,VALID,0,VALID,80.2306,VALID,0,VALID,22.8173,VALID,116,VALID,0.357031,
2009-05-05, 01:14:04,VALID,1008.97,VALID,0,VALID,80.2306,VALID,0,VALID,22.8173,VALID,110,VALID,0.208203,
2009-05-05, 01:15:04,VALID,1008.95,VALID,0,VALID,80.2306,VALID,0,VALID,22.8173,VALID,108,VALID,0.01875,
2009-05-05, 01:16:04,VALID,1008.93,VALID,0,VALID,80.2229,VALID,0,VALID,22.858,VALID,81,VALID,0.15,
2009-05-05, 01:17:04,VALID,1008.9,VALID,0,VALID,80.2077,VALID,0,VALID,22.8173,VALID,81,VALID,0.0429688,
2009-05-05, 01:18:04,VALID,1008.88,VALID,0,VALID,80.2382,VALID,0,VALID,22.858,VALID,81,VALID,0,
2009-05-05, 01:19:04,VALID,1008.89,VALID,0,VALID,80.2229,VALID,0,VALID,22.8173,VALID,81,VALID,0,
2009-05-05, 01:20:04,VALID,1008.92,VALID,0,VALID,80.2153,VALID,0,VALID,22.8368,VALID,81,VALID,0,
2009-05-05, 01:21:04,VALID,1008.89,VALID,0,VALID,80.2229,VALID,0,VALID,22.8173,VALID,81,VALID,0,
2009-05-05, 01:22:04,VALID,1008.9,VALID,0,VALID,80.2306,VALID,0,VALID,22.8173,VALID,81,VALID,0,
2009-05-05, 01:23:04,VALID,1008.89,VALID,0,VALID,80.2153,VALID,0,VALID,22.8562,VALID,81,VALID,0,
2009-05-05, 01:24:04,VALID,1008.88,VALID,0,VALID,80.2153,VALID,0,VALID,22.8775,VALID,81,VALID,0,
2009-05-05, 01:25:04,VALID,1008.89,VALID,0,VALID,80.2077,VALID,0,VALID,22.8562,VALID,81,VALID,0,
2009-05-05, 01:26:04,VALID,1008.88,VALID,0,VALID,80.2153,VALID,0,VALID,22.8757,VALID,81,VALID,0,
2009-05-05, 01:27:04,VALID,1008.86,VALID,0,VALID,80.2229,VALID,0,VALID,22.8757,VALID,81,VALID,0,
2009-05-05, 01:28:04,VALID,1008.84,VALID,0,VALID,80.2229,VALID,0,VALID,22.8757,VALID,81,VALID,0.08125,
2009-05-05, 01:29:04,VALID,1008.83,VALID,0,VALID,80.2153,VALID,0,VALID,22.8757,VALID,81,VALID,0.0824219,
2009-05-05, 01:30:04,VALID,1008.78,VALID,0,VALID,80.2229,VALID,0,VALID,22.8757,VALID,81,VALID,0,
2009-05-05, 01:31:04,VALID,1008.77,VALID,0,VALID,80.2229,VALID,0,VALID,22.8562,VALID,81,VALID,0,
2009-05-05, 01:32:04,VALID,1008.77,VALID,0,VALID,80.2153,VALID,0,VALID,22.8757,VALID,81,VALID,0,
2009-05-05, 01:33:04,VALID,1008.78,VALID,0,VALID,80.2077,VALID,0,VALID,22.8562,VALID,81,VALID,0.203906,
2009-05-05, 01:34:04,VALID,1008.78,VALID,0,VALID,80.2229,VALID,0,VALID,22.8562,VALID,81,VALID,0.155078,
2009-05-05, 01:35:04,VALID,1008.77,VALID,0,VALID,80.2306,VALID,0,VALID,22.8562,VALID,81,VALID,0,
2009-05-05, 01:36:04,VALID,1008.78,VALID,0,VALID,80.2306,VALID,0,VALID,22.8562,VALID,81,VALID,0,
2009-05-05, 01:37:04,VALID,1008.75,VALID,0,VALID,80.2306,VALID,0,VALID,22.8757,VALID,81,VALID,0,
2009-05-05, 01:38:04,VALID,1008.76,VALID,0,VALID,80.2382,VALID,0,VALID,22.8562,VALID,81,VALID,0,
2009-05-05, 01:39:04,VALID,1008.75,VALID,0,VALID,80.2229,VALID,0,VALID,22.8757,VALID,81,VALID,0,
2009-05-05, 01:40:04,VALID,1008.75,VALID,0,VALID,80.1848,VALID,0,VALID,22.8952,VALID,81,VALID,0,
2009-05-05, 01:41:04,VALID,1008.8,VALID,0,VALID,80.2001,VALID,0,VALID,22.8952,VALID,81,VALID,0,
2009-05-05, 01:42:04,VALID,1008.83,VALID,0,VALID,80.2077,VALID,0,VALID,22.8952,VALID,151,VALID,0.494531,
2009-05-05, 01:43:04,VALID,1008.81,VALID,0,VALID,80.2153,VALID,0,VALID,22.8757,VALID,163,VALID,0.458984,
2009-05-05, 01:44:04,VALID,1008.84,VALID,0,VALID,80.2153,VALID,0,VALID,22.8562,VALID,163,VALID,0.403906,
2009-05-05, 01:45:04,VALID,1008.83,VALID,0,VALID,80.2382,VALID,0,VALID,22.8368,VALID,163,VALID,0.175781,
2009-05-05, 01:46:04,VALID,1008.83,VALID,0,VALID,80.2306,VALID,0,VALID,22.8368,VALID,163,VALID,0,
2009-05-05, 01:47:04,VALID,1008.8,VALID,0,VALID,80.2229,VALID,0,VALID,22.8173,VALID,16,VALID,0.491406,
2009-05-05, 01:48:04,VALID,1008.79,VALID,0,VALID,80.2153,VALID,0,VALID,22.8368,VALID,16,VALID,0.348047,
2009-05-05, 01:49:04,VALID,1008.8,VALID,0,VALID,80.2153,VALID,0,VALID,22.8368,VALID,16,VALID,0,
2009-05-05, 01:50:04,VALID,1008.8,VALID,0,VALID,80.2229,VALID,0,VALID,22.8562,VALID,16,VALID,0.00390625,
2009-05-05, 01:51:04,VALID,1008.79,VALID,0,VALID,80.2229,VALID,0,VALID,22.8368,VALID,165,VALID,0.835938,
2009-05-05, 01:52:04,VALID,1008.81,VALID,0,VALID,80.2382,VALID,0,VALID,22.7978,VALID,177,VALID,1.11094,
2009-05-05, 01:53:04,VALID,1008.78,VALID,0,VALID,80.2458,VALID,0,VALID,22.7978,VALID,184,VALID,1.09766,
2009-05-05, 01:54:04,VALID,1008.75,VALID,0,VALID,80.2534,VALID,0,VALID,22.7978,VALID,185,VALID,0.576953,
2009-05-05, 01:55:04,VALID,1008.73,VALID,0,VALID,80.2458,VALID,0,VALID,22.7978,VALID,185,VALID,0,
2009-05-05, 01:56:04,VALID,1008.67,VALID,0,VALID,80.2458,VALID,0,VALID,22.7961,VALID,185,VALID,0.428516,
2009-05-05, 01:57:04,VALID,1008.68,VALID,0,VALID,80.2229,VALID,0,VALID,22.8368,VALID,185,VALID,0.628125,
2009-05-05, 01:58:04,VALID,1008.62,VALID,0,VALID,80.2229,VALID,0,VALID,22.8562,VALID,185,VALID,0.360547,
2009-05-05, 01:59:04,VALID,1008.62,VALID,0,VALID,80.2229,VALID,0,VALID,22.8368,VALID,185,VALID,0,
2009-05-05, 02:00:04,VALID,1008.61,VALID,0,VALID,80.2382,VALID,0,VALID,22.8173,VALID,185,VALID,0,
2009-05-05, 02:01:04,VALID,1008.62,VALID,0,VALID,80.2458,VALID,0,VALID,22.8368,VALID,185,VALID,0,
2009-05-05, 02:02:04,VALID,1008.62,VALID,0,VALID,80.2229,VALID,0,VALID,22.8757,VALID,169,VALID,0,
2009-05-05, 02:03:04,VALID,1008.59,VALID,0,VALID,80.2306,VALID,0,VALID,22.8385,VALID,180,VALID,0.9125,
2009-05-05, 02:04:04,VALID,1008.57,VALID,0,VALID,80.2458,VALID,0,VALID,22.8173,VALID,192,VALID,0.399219,
2009-05-05, 02:05:04,VALID,1008.53,VALID,0,VALID,80.2534,VALID,0,VALID,22.8173,VALID,192,VALID,0.0304688,
2009-05-05, 02:06:04,VALID,1008.53,VALID,0,VALID,80.2839,VALID,0,VALID,22.8173,VALID,192,VALID,0,
2009-05-05, 02:07:04,VALID,1008.5,VALID,0,VALID,80.2306,VALID,0,VALID,22.8368,VALID,192,VALID,0,
2009-05-05, 02:08:04,VALID,1008.53,VALID,0,VALID,80.2229,VALID,0,VALID,22.8368,VALID,192,VALID,0,
2009-05-05, 02:09:04,VALID,1008.51,VALID,0,VALID,80.2839,VALID,0,VALID,22.8368,VALID,192,VALID,0,
2009-05-05, 02:10:04,VALID,1008.5,VALID,0,VALID,80.2306,VALID,0,VALID,22.8368,VALID,192,VALID,0,
2009-05-05, 02:11:04,VALID,1008.5,VALID,0,VALID,80.2306,VALID,0,VALID,22.8368,VALID,192,VALID,0,
2009-05-05, 02:12:04,VALID,1008.49,VALID,0,VALID,80.2306,VALID,0,VALID,22.8368,VALID,192,VALID,0,
2009-05-05, 02:13:04,VALID,1008.47,VALID,0,VALID,80.2839,VALID,0,VALID,22.8368,VALID,192,VALID,0,
2009-05-05, 02:14:04,VALID,1008.46,VALID,0,VALID,80.2229,VALID,0,VALID,22.8562,VALID,192,VALID,0,
2009-05-05, 02:15:04,VALID,1008.42,VALID,0,VALID,80.2153,VALID,0,VALID,22.835,VALID,192,VALID,0,
2009-05-05, 02:16:04,VALID,1008.44,VALID,0,VALID,80.2229,VALID,0,VALID,22.8562,VALID,192,VALID,0,
2009-05-05, 02:17:04,VALID,1008.43,VALID,0,VALID,80.2611,VALID,0,VALID,22.8757,VALID,127,VALID,0.545703,
2009-05-05, 02:18:04,VALID,1008.45,VALID,0,VALID,80.2229,VALID,0,VALID,22.8757,VALID,126,VALID,0.333203,
2009-05-05, 02:19:04,VALID,1008.46,VALID,0,VALID,80.2306,VALID,0,VALID,22.835,VALID,126,VALID,0.261719,
2009-05-05, 02:20:04,VALID,1008.44,VALID,0,VALID,80.2916,VALID,0,VALID,22.7978,VALID,126,VALID,0.30625,
2009-05-05, 02:21:04,VALID,1008.45,VALID,0,VALID,80.2611,VALID,0,VALID,22.7783,VALID,126,VALID,0.499609,
2009-05-05, 02:22:04,VALID,1008.43,VALID,0,VALID,80.2611,VALID,0,VALID,22.7783,VALID,138,VALID,0.673437,
2009-05-05, 02:23:04,VALID,1008.41,VALID,0,VALID,80.3144,VALID,0,VALID,22.7588,VALID,137,VALID,0.679688,
2009-05-05, 02:24:04,VALID,1008.4,VALID,0,VALID,80.2763,VALID,0,VALID,22.7588,VALID,137,VALID,0.614844,
2009-05-05, 02:25:04,VALID,1008.41,VALID,0,VALID,80.2839,VALID,0,VALID,22.7376,VALID,132,VALID,0.324219,
2009-05-05, 02:26:04,VALID,1008.38,VALID,0,VALID,80.2687,VALID,0,VALID,22.7588,VALID,131,VALID,0.236719,
2009-05-05, 02:27:04,VALID,1008.37,VALID,0,VALID,80.2611,VALID,0,VALID,22.7588,VALID,131,VALID,0.0015625,
2009-05-05, 02:28:04,VALID,1008.38,VALID,0,VALID,80.3144,VALID,0,VALID,22.7588,VALID,131,VALID,0,
2009-05-05, 02:29:04,VALID,1008.38,VALID,0,VALID,80.2687,VALID,0,VALID,22.7588,VALID,120,VALID,0.254297,
2009-05-05, 02:30:04,VALID,1008.37,VALID,0,VALID,80.2687,VALID,0,VALID,22.7588,VALID,111,VALID,0.232031,
2009-05-05, 02:31:04,VALID,1008.38,VALID,0,VALID,80.2611,VALID,0,VALID,22.7182,VALID,111,VALID,0.209766,
2009-05-05, 02:32:04,VALID,1008.38,VALID,0,VALID,80.2687,VALID,0,VALID,22.7182,VALID,126,VALID,0.720703,
2009-05-05, 02:33:04,VALID,1008.41,VALID,0,VALID,80.2763,VALID,0,VALID,22.7199,VALID,126,VALID,0.74375,
2009-05-05, 02:34:04,VALID,1008.38,VALID,0,VALID,80.3068,VALID,0,VALID,22.7199,VALID,126,VALID,0.448047,
2009-05-05, 02:35:04,VALID,1008.42,VALID,0,VALID,80.2992,VALID,0,VALID,22.7199,VALID,126,VALID,0.76875,
2009-05-05, 02:36:04,VALID,1008.39,VALID,0,VALID,80.2916,VALID,0,VALID,22.7004,VALID,108,VALID,0.645703,
2009-05-05, 02:37:04,VALID,1008.4,VALID,0,VALID,80.2992,VALID,0,VALID,22.7004,VALID,108,VALID,0.173047,
2009-05-05, 02:38:04,VALID,1008.39,VALID,0,VALID,80.2916,VALID,0,VALID,22.7004,VALID,108,VALID,0.0582031,
2009-05-05, 02:39:04,VALID,1008.4,VALID,0,VALID,80.3221,VALID,0,VALID,22.6792,VALID,108,VALID,0.202734,
2009-05-05, 02:40:04,VALID,1008.36,VALID,0,VALID,80.2763,VALID,0,VALID,22.6597,VALID,108,VALID,0.0242187,
2009-05-05, 02:41:04,VALID,1008.38,VALID,0,VALID,80.2992,VALID,0,VALID,22.7004,VALID,108,VALID,0,
2009-05-05, 02:42:04,VALID,1008.37,VALID,0,VALID,80.3221,VALID,0,VALID,22.6809,VALID,108,VALID,0.158594,
2009-05-05, 02:43:04,VALID,1008.39,VALID,0,VALID,80.2992,VALID,0,VALID,22.6809,VALID,108,VALID,0.313281,
2009-05-05, 02:44:04,VALID,1008.36,VALID,0,VALID,80.3144,VALID,0,VALID,22.6809,VALID,108,VALID,0.378516,
2009-05-05, 02:45:04,VALID,1008.36,VALID,0,VALID,80.3144,VALID,0,VALID,22.6614,VALID,108,VALID,0.0816406,
2009-05-05, 02:46:04,VALID,1008.38,VALID,0,VALID,80.3144,VALID,0,VALID,22.6402,VALID,93,VALID,0,
2009-05-05, 02:47:04,VALID,1008.35,VALID,0,VALID,80.3221,VALID,0.105969,VALID,22.6402,VALID,93,VALID,0,
2009-05-05, 02:48:04,VALID,1008.35,VALID,0,VALID,80.3144,VALID,0,VALID,22.6614,VALID,93,VALID,0,
2009-05-05, 02:49:04,VALID,1008.38,VALID,0,VALID,80.3068,VALID,0.105969,VALID,22.6614,VALID,93,VALID,0.673828,
2009-05-05, 02:50:04,VALID,1008.37,VALID,0,VALID,80.3144,VALID,0,VALID,22.642,VALID,92,VALID,0.421484,
2009-05-05, 02:51:04,VALID,1008.39,VALID,0,VALID,80.3068,VALID,0,VALID,22.6208,VALID,91,VALID,0.213281,
2009-05-05, 02:52:04,VALID,1008.39,VALID,0,VALID,80.3221,VALID,0,VALID,22.642,VALID,91,VALID,0.432813,
2009-05-05, 02:53:04,VALID,1008.4,VALID,0,VALID,80.3678,VALID,0,VALID,22.642,VALID,91,VALID,0.665234,
2009-05-05, 02:54:04,VALID,1008.37,VALID,0,VALID,80.3144,VALID,0,VALID,22.6225,VALID,93,VALID,0.488281,
2009-05-05, 02:55:04,VALID,1008.38,VALID,0,VALID,80.3221,VALID,0,VALID,22.6225,VALID,96,VALID,0.552344,
2009-05-05, 02:56:04,VALID,1008.37,VALID,0,VALID,80.3297,VALID,0,VALID,22.6013,VALID,96,VALID,0.436719,
2009-05-05, 02:57:04,VALID,1008.37,VALID,0,VALID,80.3373,VALID,0,VALID,22.6225,VALID,96,VALID,0.232422,
2009-05-05, 02:58:04,VALID,1008.36,VALID,0,VALID,80.3678,VALID,0.105969,VALID,22.603,VALID,96,VALID,0.236328,
2009-05-05, 02:59:04,VALID,1008.34,VALID,0,VALID,80.3678,VALID,0,VALID,22.5818,VALID,96,VALID,0.0386719,
2009-05-05, 03:00:04,VALID,1008.38,VALID,0,VALID,80.3297,VALID,0,VALID,22.603,VALID,96,VALID,0,
2009-05-05, 03:01:04,VALID,1008.43,VALID,0,VALID,80.3526,VALID,0,VALID,22.5835,VALID,96,VALID,0,
2009-05-05, 03:02:04,VALID,1008.43,VALID,0,VALID,80.3373,VALID,0,VALID,22.5835,VALID,96,VALID,0.0238281,
2009-05-05, 03:03:04,VALID,1008.46,VALID,0,VALID,80.3373,VALID,0,VALID,22.5429,VALID,97,VALID,0.253516,
2009-05-05, 03:04:04,VALID,1008.45,VALID,0,VALID,80.3526,VALID,0,VALID,22.5446,VALID,97,VALID,0,
2009-05-05, 03:05:04,VALID,1008.49,VALID,0,VALID,80.3526,VALID,0,VALID,22.5446,VALID,97,VALID,0,
2009-05-05, 03:06:04,VALID,1008.51,VALID,0,VALID,80.3449,VALID,0,VALID,22.5056,VALID,97,VALID,0,
2009-05-05, 03:07:04,VALID,1008.52,VALID,0,VALID,80.3449,VALID,0,VALID,22.5251,VALID,97,VALID,0,
2009-05-05, 03:08:04,VALID,1008.52,VALID,0,VALID,80.3602,VALID,0,VALID,22.5056,VALID,97,VALID,0,
2009-05-05, 03:09:04,VALID,1008.53,VALID,0,VALID,80.3526,VALID,0,VALID,22.5056,VALID,97,VALID,0,
2009-05-05, 03:10:04,VALID,1008.55,VALID,0,VALID,80.4059,VALID,0,VALID,22.5056,VALID,97,VALID,0,
2009-05-05, 03:11:04,VALID,1008.57,VALID,0,VALID,80.3983,VALID,0,VALID,22.465,VALID,97,VALID,0,
2009-05-05, 03:12:04,VALID,1008.57,VALID,0,VALID,80.4136,VALID,0,VALID,22.4861,VALID,97,VALID,0,
2009-05-05, 03:13:04,VALID,1008.57,VALID,0,VALID,80.4059,VALID,0,VALID,22.4861,VALID,101,VALID,0.217578,
2009-05-05, 03:14:04,VALID,1008.56,VALID,0,VALID,80.3831,VALID,0,VALID,22.4861,VALID,107,VALID,0.361328,
2009-05-05, 03:15:04,VALID,1008.58,VALID,0,VALID,80.3754,VALID,0,VALID,22.4844,VALID,107,VALID,0.0753906,
2009-05-05, 03:16:04,VALID,1008.58,VALID,0,VALID,80.3754,VALID,0,VALID,22.5056,VALID,107,VALID,0.102734,
2009-05-05, 03:17:04,VALID,1008.58,VALID,0,VALID,80.3831,VALID,0,VALID,22.5056,VALID,107,VALID,0,
2009-05-05, 03:18:04,VALID,1008.58,VALID,0,VALID,80.3754,VALID,0,VALID,22.5056,VALID,107,VALID,0.146094,
2009-05-05, 03:19:04,VALID,1008.56,VALID,0,VALID,80.3831,VALID,0,VALID,22.5056,VALID,107,VALID,0.142578,
2009-05-05, 03:20:04,VALID,1008.61,VALID,0,VALID,80.3754,VALID,0,VALID,22.5056,VALID,107,VALID,0,
2009-05-05, 03:21:04,VALID,1008.58,VALID,0,VALID,80.3754,VALID,0,VALID,22.4861,VALID,107,VALID,0.228906,
2009-05-05, 03:22:04,VALID,1008.61,VALID,0,VALID,80.3526,VALID,0,VALID,22.5056,VALID,107,VALID,0,
2009-05-05, 03:23:04,VALID,1008.59,VALID,0,VALID,80.3754,VALID,0,VALID,22.4861,VALID,107,VALID,0,
2009-05-05, 03:24:04,VALID,1008.58,VALID,0,VALID,80.3678,VALID,0,VALID,22.4861,VALID,107,VALID,0,
2009-05-05, 03:25:04,VALID,1008.56,VALID,0,VALID,80.3754,VALID,0,VALID,22.4667,VALID,107,VALID,0,
2009-05-05, 03:26:04,VALID,1008.53,VALID,0,VALID,80.3831,VALID,0,VALID,22.4472,VALID,107,VALID,0,
2009-05-05, 03:27:04,VALID,1008.53,VALID,0,VALID,80.3907,VALID,0,VALID,22.4472,VALID,107,VALID,0,
2009-05-05, 03:28:04,VALID,1008.51,VALID,0,VALID,80.4364,VALID,0,VALID,22.4667,VALID,107,VALID,0,
2009-05-05, 03:29:04,VALID,1008.5,VALID,0,VALID,80.3754,VALID,0,VALID,22.426,VALID,107,VALID,0,
2009-05-05, 03:30:04,VALID,1008.47,VALID,0,VALID,80.3983,VALID,0,VALID,22.426,VALID,107,VALID,0,
2009-05-05, 03:31:04,VALID,1008.45,VALID,0,VALID,80.3907,VALID,0,VALID,22.426,VALID,107,VALID,0,
2009-05-05, 03:32:04,VALID,1008.44,VALID,0,VALID,80.3831,VALID,0,VALID,22.4472,VALID,107,VALID,0,
2009-05-05, 03:33:04,VALID,1008.43,VALID,0,VALID,80.4059,VALID,0,VALID,22.4472,VALID,107,VALID,0,
2009-05-05, 03:34:04,VALID,1008.45,VALID,0,VALID,80.3907,VALID,0,VALID,22.4277,VALID,107,VALID,0,
2009-05-05, 03:35:04,VALID,1008.48,VALID,0,VALID,80.3907,VALID,0,VALID,22.4065,VALID,107,VALID,0,
2009-05-05, 03:36:04,VALID,1008.48,VALID,0,VALID,80.3983,VALID,0,VALID,22.4082,VALID,107,VALID,0,
2009-05-05, 03:37:04,VALID,1008.5,VALID,0,VALID,80.3907,VALID,0,VALID,22.4082,VALID,107,VALID,0,
2009-05-05, 03:38:04,VALID,1008.51,VALID,0,VALID,80.4136,VALID,0,VALID,22.3887,VALID,107,VALID,0.241406,
2009-05-05, 03:39:04,VALID,1008.5,VALID,0,VALID,80.4212,VALID,0,VALID,22.3693,VALID,107,VALID,0,
2009-05-05, 03:40:04,VALID,1008.48,VALID,0,VALID,80.3983,VALID,0,VALID,22.4082,VALID,107,VALID,0,
2009-05-05, 03:41:04,VALID,1008.47,VALID,0,VALID,80.3907,VALID,0,VALID,22.4277,VALID,106,VALID,0,
2009-05-05, 03:42:04,VALID,1008.5,VALID,0,VALID,80.4059,VALID,0,VALID,22.4277,VALID,98,VALID,0,
2009-05-05, 03:43:04,VALID,1008.49,VALID,0,VALID,80.4059,VALID,0,VALID,22.426,VALID,97,VALID,0,
2009-05-05, 03:44:04,VALID,1008.48,VALID,0,VALID,80.3907,VALID,0,VALID,22.4472,VALID,84,VALID,0.127344,
2009-05-05, 03:45:04,VALID,1008.52,VALID,0,VALID,80.4364,VALID,0,VALID,22.4472,VALID,84,VALID,0.373828,
2009-05-05, 03:46:04,VALID,1008.52,VALID,0,VALID,80.3678,VALID,0,VALID,22.4667,VALID,85,VALID,0.525391,
2009-05-05, 03:47:04,VALID,1008.52,VALID,0,VALID,80.3678,VALID,0,VALID,22.4861,VALID,85,VALID,0.276953,
2009-05-05, 03:48:04,VALID,1008.48,VALID,0,VALID,80.3754,VALID,0,VALID,22.4455,VALID,72,VALID,0.451562,
2009-05-05, 03:49:04,VALID,1008.51,VALID,0,VALID,80.3907,VALID,0,VALID,22.4667,VALID,72,VALID,0.421094,
2009-05-05, 03:50:04,VALID,1008.54,VALID,0,VALID,80.3907,VALID,0,VALID,22.465,VALID,72,VALID,0,
2009-05-05, 03:51:04,VALID,1008.53,VALID,0,VALID,80.3754,VALID,0,VALID,22.4667,VALID,101,VALID,0,
2009-05-05, 03:52:04,VALID,1008.52,VALID,0,VALID,80.3678,VALID,0,VALID,22.465,VALID,98,VALID,0,
2009-05-05, 03:53:04,VALID,1008.5,VALID,0,VALID,80.3678,VALID,0,VALID,22.4667,VALID,98,VALID,0,
2009-05-05, 03:54:04,VALID,1008.48,VALID,0,VALID,80.3907,VALID,0,VALID,22.4455,VALID,98,VALID,0,